This demonstration page uses our WeatherBlox Daily Observations layout. Learn more.

Left ArrowRight Arrow

Hourly Observations for March 14, 2022

Temp ( °F °C ) Dew Point ( °F °C ) Humidity (%) Winds ( mph kmh ) Pressure ( in mb ) Visibility ( mi km ) Precip ( " mm )
12:56 am 00:56 Clear 37 2.8 22 -5.6 54 54 Calm 29.75 1008 10 16 0.00 0.00
1:56 am 01:56 Clear 41 5 21 -6.1 45 45 S 3 6 29.73 1007 10 16 0.00 0.00
2:56 am 02:56 Clear 40 4.4 20 -6.7 45 45 W 6 9 29.77 1008 10 16 0.00 0.00
3:56 am 03:56 Clear 36 2.2 21 -6.1 55 55 Calm 29.75 1007 10 16 0.00 0.00
4:56 am 04:56 Clear 34 1.1 21 -6.1 59 59 NNW 7 11 29.74 1007 10 16 0.00 0.00
5:56 am 05:56 Clear 35 1.7 21 -6.1 57 57 NNW 6 9 29.75 1008 10 16 0.00 0.00
6:56 am 06:56 Clear 35 1.7 23 -5 61 61 NNW 7 11 29.80 1009 10 16 0.00 0.00
7:56 am 07:56 Sunny 42 5.6 30 -1.1 62 62 N 15 24 29.85 1011 10 16 0.00 0.00
8:56 am 08:56 Sunny 39 3.9 29 -1.7 67 67 N 22 35 29.92 1013 10 16 0.00 0.00
9:56 am 09:56 Sunny 38 3.3 28 -2.2 68 68 N 30 48 29.97 1015 10 16 0.00 0.00
10:56 am 10:56 Sunny 41 5 27 -2.8 57 57 N 33 54 29.99 1016 10 16 0.00 0.00
11:56 am 11:56 Sunny 42 5.6 27 -2.8 55 55 N 28 44 30.02 1017 10 16 0.00 0.00
12:56 pm 12:56 Sunny 46 7.8 28 -2.2 50 50 N 32 52 30.04 1017 10 16 0.00 0.00
1:56 pm 13:56 Sunny 49 9.4 28 -2.2 44 44 N 31 50 30.05 1018 10 16 0.00 0.00
2:56 pm 14:56 Cloudy 49 9.4 29 -1.7 46 46 NNE 29 46 30.06 1018 10 16 0.00 0.00
3:56 pm 15:56 Mostly Cloudy 51 10.6 29 -1.7 43 43 N 33 54 30.10 1019 10 16 0.00 0.00
4:56 pm 16:56 Mostly Sunny 50 10 29 -1.7 44 44 N 29 46 30.13 1020 10 16 0.00 0.00
5:56 pm 17:56 Sunny 48 8.9 28 -2.2 46 46 NNE 30 48 30.16 1022 10 16 0.00 0.00
6:56 pm 18:56 Sunny 46 7.8 28 -2.2 50 50 N 21 33 30.21 1023 10 16 0.00 0.00
7:56 pm 19:56 Clear 41 5 28 -2.2 60 60 N 14 22 30.22 1024 10 16 0.00 0.00
8:56 pm 20:56 Clear 39 3.9 28 -2.2 65 65 N 8 13 30.26 1025 10 16 0.00 0.00
9:56 pm 21:56 Clear 36 2.2 27 -2.8 70 70 N 10 17 30.30 1026 10 16 0.00 0.00
10:56 pm 22:56 Clear 34 1.1 27 -2.8 76 76 NNE 12 19 30.30 1026 10 16 0.00 0.00
11:56 pm 23:56 Clear 32 0 26 -3.3 79 79 NNW 6 9 30.31 1027 10 16 0.00 0.00

Powered by AerisWeather